Showing default

QIANFAN-71, 62801

Orbit data source: Space-Track

QIANFAN-71, 62801 is a Chinese payload satellite in LEO that was launched on Thu, 23 Jan 2025 UTC via a CHANG ZHENG 6A launch vehicle from the Taiyaun Space Center, China (TSC). Payload-class satellites include a variety of spacecraft equipped with specific instruments for various scientific and technological missions. These include communications satellites like Starlink; space stations such as the ISS; scientific satellites like the Hubble; Earth observation satellites from companies like Planet Labs, Umbra, and HawkEye 360; GPS; miniature CubeSats for education and research; and military/defense satellites.

Loading next visibility...
Identifier
62801, 2025-016S
Orbit
LEO
Country
Flag of CNCN / PRC
Related business
Manufacturer
SECM
Mission
Operational Commercial Communications
Bus & Motor
QIANFAN, Unknown motor
Mass
267 kg wet, ~267 kg dry
Launch date (UTC)
2025-01-23 (1 year ago)
Launch vehicle
CHANG ZHENG 6A
Launch site
Taiyaun Space Center, China (TSC)
Object type
Payload
Rocket body
Debris
Shape & HBR
Box + 1 Pan, 1.3 m
Radar Cross Section
13.200 m², Large (>1 m²)

Expand to show TLE details & history
Last TLE update: 7 hours ago

TLE from 7 hours ago
0 QIANFAN-71
1 62801U 25016S   26035.77667028  .00000108  00000-0  14824-3 0  9991
2 62801  88.9727  97.5020 0015967 185.1515 174.9474 13.50993579 54531
Epoch: 2026-02-04T18:38Z
TLE epoch observation values (Epoch: 2026-02-04T18:38:24.312Z)
Latitude
-0.00005°
Longitude
42.96231°
Altitude
1,083.405 km
Speed
7.305 km/s
True Right ascension
06h 30m 00s
True Declination
0° 00' 00"
Sunlit
Object was in full shadow at epoch
Visualization orbit readout
Latitude
Unknown
Longitude
Unknown
Altitude
Unknown
Speed
Unknown
Apparent Right ascension
Unknown
Apparent Declination
Unknown
Sunlit
N/A
Visualization observer readout
Local Sidereal Time
03:17:11
Azimuth
Unknown
Elevation
Unknown
Doppler factor
Unknown
Orbital elements
Apogee altitude
1,077.542 km
Perigee altitude
1,053.771 km
Semi-major axis
7,443.793 km
Eccentricity
0.0016
Inclination
88.9727°
RAAN
97.502°
Arg. of periapsis
185.1515°
True anomaly
174.96348°
Mean anomaly
174.9474°
Eccentric anomaly
174.95544°
Mean motion
3.37949 °/min
Orbital period
106.52 mins
BSTAR
0.00014824
Loading maneuver chart data...
Computing Atmospheric mass density...
Loading historical data...
Loading historical data...
Loading historical data...
Loading historical data...
Loading historical data...
Loading historical data...
Loading historical data...

Documentation

Showing up to 5 results
|